This demonstration page uses our WeatherBlox Daily Observations layout. Learn more.

Left ArrowRight Arrow

Hourly Observations for August 14, 2019

Temp ( °F °C ) Dew Point ( °F °C ) Humidity (%) Winds ( mph kmh ) Pressure ( in mb ) Visibility ( mi km ) Precip ( " mm )
12:56 am 00:56 Mostly Cloudy 73 23 61 16 65 65 N 15 24 30.05 1018 10 16 0.00 0.00
1:56 am 01:56 Mostly Cloudy 72 22 59 15 65 65 N 14 22 30.06 1018 10 16 0.00 0.00
2:56 am 02:56 Mostly Cloudy 70 21 59 15 69 69 NW 9 15 30.08 1019 10 16 0.00 0.00
3:56 am 03:56 Mostly Cloudy 68 20 57 14 69 69 WNW 7 11 30.08 1019 10 16 0.00 0.00
4:56 am 04:56 Mostly Clear 66 19 57 14 73 73 WNW 8 13 30.09 1019 10 16 0.00 0.00
5:56 am 05:56 Mostly Clear 64 18 57 14 78 78 NW 7 11 30.09 1019 10 16 0.00 0.00
6:56 am 06:56 Sunny 64 18 57 14 78 78 NW 3 6 30.11 1020 10 16 0.00 0.00
7:56 am 07:56 Sunny 66 19 55 13 68 68 NW 10 17 30.13 1020 10 16 0.00 0.00
8:56 am 08:56 Sunny 68 20 55 13 64 64 NNW 10 17 30.13 1020 10 16 0.00 0.00
9:56 am 09:56 Sunny 72 22 55 13 57 57 NW 14 22 30.14 1021 10 16 0.00 0.00
10:56 am 10:56 Sunny 73 23 55 13 53 53 NNW 3 6 30.13 1020 10 16 0.00 0.00
11:56 am 11:56 Sunny 73 23 55 13 53 53 NW 16 26 30.13 1020 10 16 0.00 0.00
12:56 pm 12:56 Mostly Sunny 75 24 55 13 50 50 NW 14 22 30.11 1020 10 16 0.00 0.00
1:56 pm 13:56 Mostly Sunny 77 25 55 13 47 47 VRB 6 9 30.09 1019 10 16 0.00 0.00
3:56 pm 15:56 Mostly Cloudy 77 25 57 14 51 51 NNE 7 11 30.10 1019 10 16 0.00 0.00
4:56 pm 16:56 Mostly Cloudy 77 25 57 14 51 51 N 8 13 30.09 1019 10 16 0.00 0.00
5:56 pm 17:56 Mostly Cloudy 77 25 57 14 51 51 NNE 5 7 30.09 1019 10 16 0.00 0.00
6:56 pm 18:56 Mostly Cloudy 77 25 59 15 54 54 NW 8 13 30.08 1019 10 16 0.00 0.00
7:56 pm 19:56 Cloudy 73 23 59 15 61 61 WNW 7 11 30.09 1019 10 16 0.00 0.00
8:56 pm 20:56 Mostly Cloudy 73 23 59 15 61 61 NW 3 6 30.08 1019 10 16 0.00 0.00
9:56 pm 21:56 Cloudy 72 22 59 15 65 65 Calm 30.08 1019 10 16 0.00 0.00
10:56 pm 22:56 Mostly Clear 70 21 59 15 69 69 Calm 30.09 1019 10 16 0.00 0.00
11:56 pm 23:56 Mostly Clear 68 20 59 15 73 73 Calm 30.09 1019 10 16 0.00 0.00

Powered by AerisWeather